Location: Bourg-d�Oueil
(42.8588°N, 0.4991°E)
Time: 15:08:57
(UTC+00:00)

Cosmos 2123 Rocket - Pass Details

Date: 16 June 2021
Orbit: 961 x 992 km, 82.9° (Epoch: 31 July)

Event Time Altitude Azimuth Distance (km) Brightness Sun altitude
Exits shadow 21:34:04 22° 161° (SSE) 1,997 5.1 -15.8°
Maximum altitude 21:38:04 56° 92° (E) 1,165 4.2 -16.3°
Drops below altitude 10° 21:44:14 10° 16° (NNE) 2,762 6.9 -16.9°
Sets 21:46:48 0° 12° (NNE) 3,717 7.8 -17.1°
